El Horno, Honduras

1:28 AM CST on February 24, 2017 (GMT -0600)
Coronel Enrique Soto Cano Air Base

Weather History for MHSC - February, 2013

Change the Weather History Date:

Wednesday, February 20, 2013

  Actual Average Record
Temperature  
Mean Temperature 78 °F -  
Max Temperature 88 °F - - ()
Min Temperature 68 °F - - ()
Cooling Degree Days 13    
Growing Degree Days 28 (Base 50)    
Moisture  
Dew Point 62 °F    
Average Humidity 60    
Maximum Humidity 87    
Minimum Humidity 31    
Precipitation  
Precipitation 0.03 in - - ()
Sea Level Pressure  
Sea Level Pressure 29.87 in    
Wind  
Wind Speed 8 mph ()    
Max Wind Speed 16 mph    
Max Gust Speed 84 mph    
Visibility 6.8 miles    
Events      
T = Trace of Precipitation, MM = Missing Value Source: Averaged Metar Reports

Daily Weather History Graph

Daily Weather History Graph

Search for Another Location

Airport or City:

Trip Planner

Search our weather history database for the weather conditions in past years. The results will help you decide how hot, cold, wet, or windy it might be!

Date:

Astronomy

Feb. 20, 2013 Rise Set
Actual Time 6:18 AM CST 6:02 PM CST
Civil Twilight 5:56 AM CST 6:24 PM CST
Nautical Twilight 5:31 AM CST 6:49 PM CST
Astronomical Twilight 5:06 AM CST 7:14 PM CST
Moon 1:51 PM CST (2/20) 2:10 AM CST (2/20)
Length of Visible Light 12h 28m
Length of Day
11h 44m
Waxing Gibbous, 76% of the Moon is Illuminated
Feb 20
Waxing Gibbous
Feb 25
Full
Mar 4
Last Quarter
Mar 11
New
Mar 19
First Quarter

Hourly Weather History & Observations

Time (CST) Temp. Heat Index Dew Point Humidity Pressure Visibility Wind Dir Wind Speed Gust Speed Precip Events Conditions
12:58 AM 70.3 °F - 66.4 °F 87% 29.88 in 6.2 mi NNW 5.8 mph - N/A   Overcast
4:58 AM 69.3 °F - 63.7 °F 82% 29.86 in 6.2 mi North 5.8 mph - N/A   Partly Cloudy
5:58 AM 67.5 °F - 63.0 °F 85% 29.88 in 6.2 mi North 6.9 mph - N/A   Partly Cloudy
6:00 AM 69 °F - 63 °F 74%  in 11 mi North 6.9 mph - -   Haze
6:58 AM 68.4 °F - 63.3 °F 84% 29.91 in 6.2 mi NNE 8.1 mph - N/A   Clear
7:58 AM 71.6 °F - 61.7 °F 71% 29.94 in 6.2 mi North 10.4 mph - N/A   Partly Cloudy
8:58 AM 73.2 °F - 61.3 °F 66% 29.95 in 6.2 mi NNW 10.4 mph - N/A   Mostly Cloudy
9:00 AM 75 °F - 61 °F 53%  in 11 mi North 9.2 mph - -   Haze
9:58 AM 79.3 °F - 61.9 °F 55% 29.94 in 6.2 mi NNW 8.1 mph - N/A   Mostly Cloudy
10:58 AM 80.2 °F 81.0 °F 60.3 °F 50% 29.91 in 6.2 mi NNW 6.9 mph - N/A   Overcast
11:58 AM 81.7 °F 82.3 °F 60.8 °F 49% 29.88 in 6.2 mi NNW 8.1 mph - N/A   Mostly Cloudy
12:00 PM 86 °F - 60 °F 32%  in 11 mi North 9.2 mph - -   Haze
1:58 PM 87.4 °F 85.7 °F 54.9 °F 33% 29.79 in 6.2 mi NE 10.4 mph 17.3 mph N/A   Scattered Clouds
2:58 PM 88.9 °F 87.3 °F 56.1 °F 33% 29.77 in 6.2 mi ENE 11.5 mph 20.7 mph N/A   Scattered Clouds
3:00 PM 88 °F - 62 °F 31%  in 11 mi North 11.5 mph - -   Haze
3:58 PM 87.6 °F 85.9 °F 55.4 °F 33% 29.75 in 6.2 mi NE 8.1 mph - N/A   Partly Cloudy
4:58 PM 86.4 °F 84.7 °F 54.5 °F 34% 29.76 in 6.2 mi East 12.7 mph - N/A   Clear
5:53 PM 82.4 °F 82.5 °F 59.0 °F 45% 29.91 in - NNE 16.1 mph 84.0 mph N/A   Squalls
5:58 PM 82.9 °F 83.2 °F 60.4 °F 46% 29.79 in 6.2 mi Variable 4.6 mph - N/A   Partly Cloudy
6:03 PM 80.6 °F 82.3 °F 64.4 °F 58% 29.91 in 2.5 mi North 11.5 mph 17.3 mph N/A   Haze
6:08 PM 78.8 °F - 64.4 °F 61% 29.91 in 6.2 mi NNW 9.2 mph - N/A   Clear
6:58 PM 77.4 °F - 65.3 °F 66% 29.83 in 6.2 mi NW 10.4 mph - 0.03 in   Overcast
7:58 PM 74.8 °F - 65.1 °F 72% 29.86 in 6.2 mi NW 13.8 mph - N/A   Scattered Clouds
8:58 PM 73.2 °F - 64.9 °F 75% 29.88 in 6.2 mi NNW 8.1 mph - N/A   Scattered Clouds
9:58 PM 72.1 °F - 65.3 °F 79% 29.88 in 6.2 mi NNW 9.2 mph - N/A   Partly Cloudy
10:58 PM 72.3 °F - 65.8 °F 80% 29.88 in 6.2 mi NNW 8.1 mph - N/A   Overcast
11:58 PM 72.5 °F - 66.6 °F 82% 29.86 in 6.2 mi North 9.2 mph - N/A   Overcast